APRIZESAT 9

Last updated on Sun Jun 21 2026 00:03:42 GMT+0000 (Coordinated Universal Time)

1 40018U 14033J 26171.32982182 .00000543 00000+0 87161-4 0 9994 2 40018 97.9066 304.4516 0065933 189.0281 170.9748 14.74218164644020
UTC large
Height (km)
Speed (km/s)
/
Latitude / Longitude
Inclination (degrees)
Orbital Period (minutes)
Azimuth
Elevation
Range (km)
Doppler Factor

Next 0 passes for location: London (51.5072 / 0.1276)

No passes found over London.
APRIZESAT 9